GFSFLT2_con_lsi_000.txt.gz
Lid_Strength_Index
-0 -0 -1 -1 -1 -1 -1 -1 -1 1 5 7 4 4 4 4 3 3 3 2 3 5 4 5 5 5 8 7
0 -0 -0 -0 -0 -1 -1 -2 -1 3 7 5 4 5 4 4 3 2 2 1 2 3 4 5 6 8 8 10
1 0 0 0 -0 -1 -1 -1 2 4 7 4 6 4 4 5 4 3 2 3 3 4 4 8 9 9 11 10
1 1 1 1 -0 0 1 1 2 7 7 8 5 5 4 4 5 4 5 5 5 7 8 9 12 11 11 10
1 1 3 3 5 5 5 6 6 7 7 6 5 6 5 5 5 5 8 6 9 10 9 8 8 8 9 10
2 2 3 4 4 4 9 5 5 6 5 5 8 7 5 7 7 8 7 8 10 7 6 7 8 8 10 10
2 4 4 4 2 3 8 7 6 7 6 6 8 8 6 7 7 8 8 9 7 6 7 8 9 9 10 10
5 4 5 3 1 2 10 9 9 7 7 6 9 6 5 6 7 9 8 8 7 8 8 9 8 11 8 8
5 6 3 2 2 4 16 9 9 5 6 8 7 7 4 6 8 8 8 9 9 9 9 9 8 9 7 8
4 3 2 2 4 10 14 10 8 10 9 8 8 7 7 5 5 8 8 8 7 8 8 7 7 7 8 8
4 0 2 5 11 13 8 10 10 9 9 9 9 8 9 9 10 12 11 8 9 7 7 9 7 8 10 15
2 0 3 9 14 9 9 8 9 9 11 9 9 9 9 11 9 9 10 11 12 9 7 9 10 10 10 14
2 2 6 13 11 9 8 9 9 10 10 9 9 9 10 10 9 9 11 11 11 7 8 7 8 10 12 9
2 5 9 11 9 7 7 7 11 9 10 9 10 10 10 8 9 7 7 9 12 8 8 7 8 9 8 13
3 8 11 9 8 5 5 8 9 10 10 10 9 9 10 8 7 7 7 8 10 10 10 11 11 11 11 10
8 8 10 8 7 7 5 6 7 8 9 9 10 10 10 8 6 6 8 8 9 12 11 8 8 9 11 10
11 11 9 9 7 7 7 7 8 7 7 9 11 9 8 6 6 7 8 8 10 14 13 10 9 11 10 10

GFSFLT2_con_lsi_003.txt.gz
Lid_Strength_Index
0 -0 -0 -1 -1 -1 -1 -1 -1 1 5 7 6 6 4 5 4 3 4 4 4 6 7 9 7 7 10 9
1 0 0 -0 -0 -0 -0 -1 -1 4 8 5 6 6 5 5 4 4 3 3 4 5 7 7 8 10 11 13
1 1 1 0 1 -0 -1 -1 3 6 9 4 7 6 6 6 5 4 4 3 4 7 7 11 13 12 15 13
1 1 1 1 1 1 2 2 2 9 8 9 6 6 6 5 6 5 5 6 8 10 11 13 16 14 14 13
1 1 3 5 7 7 6 8 7 8 8 7 6 8 6 6 6 7 10 9 12 13 12 11 11 11 12 12
2 2 4 6 6 7 10 6 6 6 6 7 9 8 6 9 9 11 10 11 13 10 9 9 10 11 12 12
3 5 7 5 4 5 10 8 7 7 8 7 9 9 7 9 10 11 10 13 10 8 9 10 10 11 12 12
5 6 7 4 4 5 13 10 9 8 7 7 10 7 7 8 9 11 10 11 8 9 10 10 10 13 9 9
9 6 5 4 5 7 18 9 9 6 8 9 8 8 6 7 10 10 10 11 11 11 11 10 9 12 9 10
6 6 3 5 7 13 17 11 10 10 11 10 9 7 8 7 7 9 10 10 8 9 9 8 8 8 10 10
6 3 4 8 14 17 10 12 11 10 11 11 11 9 10 12 13 15 15 11 10 9 8 10 9 10 13 17
6 4 6 12 18 12 11 9 9 10 12 11 11 11 11 13 11 12 14 15 16 11 9 10 11 12 12 16
4 5 10 16 14 11 9 10 9 13 13 11 11 12 12 12 11 10 14 14 14 9 9 9 9 12 14 11
6 7 12 13 12 8 8 8 12 11 13 12 12 12 13 10 10 9 9 12 14 10 9 9 10 11 10 15
6 11 15 13 10 7 7 9 11 12 12 12 11 11 11 9 8 8 8 9 12 12 11 12 12 12 12 13
11 12 14 11 9 9 8 8 8 9 10 10 11 11 11 9 6 7 10 9 11 13 12 10 9 10 11 11
15 15 12 10 9 9 9 8 9 8 8 11 13 10 10 8 7 8 10 10 12 14 13 12 11 12 11 11

GFSFLT2_con_lsi_006.txt.gz
Lid_Strength_Index
0 0 0 -0 -0 -0 -0 -1 -1 0 6 8 7 5 5 6 5 4 5 4 4 7 8 9 8 8 10 9
1 1 0 0 0 -0 -0 -1 -1 4 9 5 7 6 6 6 5 4 4 4 4 5 7 8 9 11 12 14
1 1 1 1 0 0 -0 -1 4 7 9 4 8 7 7 7 6 5 5 4 5 8 8 12 14 13 16 14
1 1 1 1 1 2 2 2 3 9 8 9 7 7 7 6 6 6 6 7 9 11 12 13 17 15 15 14
1 1 4 5 7 7 7 9 8 9 9 8 7 9 7 7 7 8 11 10 13 14 12 12 12 13 14 14
2 2 4 7 7 7 10 7 7 7 6 8 10 9 7 9 10 12 11 12 14 11 10 10 11 12 14 14
3 6 8 7 5 6 11 9 7 8 8 8 10 10 8 9 11 12 11 14 11 9 10 11 11 12 13 13
6 7 7 5 5 7 14 11 9 8 8 8 10 7 7 9 11 12 11 12 9 10 11 11 11 13 10 10
10 7 5 5 6 7 19 10 10 7 9 10 10 9 7 8 11 11 12 13 11 11 11 10 10 12 9 11
7 7 4 6 8 14 18 12 10 11 11 11 10 8 9 8 8 10 11 11 9 10 10 9 9 9 11 11
7 5 5 9 15 18 11 13 12 11 12 12 12 10 11 12 14 16 16 13 12 10 9 11 10 10 13 17
7 6 9 13 18 13 13 9 10 11 13 12 12 12 12 14 12 13 15 16 16 12 10 10 12 13 13 17
5 6 11 17 16 13 10 10 10 13 14 12 12 13 13 13 11 11 15 15 15 11 10 9 10 13 15 12
7 8 13 14 13 9 10 10 13 12 14 13 13 13 14 12 11 10 10 13 15 11 10 10 11 11 11 15
8 12 15 14 11 9 9 11 12 12 12 13 12 13 13 10 8 9 8 11 13 13 11 13 13 13 13 13
12 14 14 11 9 10 9 9 10 10 11 12 12 12 12 10 7 8 12 9 12 15 13 9 9 10 11 12
16 15 13 12 11 13 13 12 11 10 11 12 13 11 11 7 7 8 10 10 14 17 16 12 11 13 11 11

GFSFLT2_con_lsi_009.txt.gz
Lid_Strength_Index
0 0 0 0 0 -0 -0 -0 -1 1 7 8 7 6 4 6 5 5 5 4 5 7 8 10 8 9 10 10
1 1 0 0 -0 -0 -0 -1 -1 5 10 5 7 6 6 7 6 5 4 5 5 6 8 8 10 11 12 14
1 0 0 0 0 0 -0 -1 5 7 9 4 9 7 7 7 7 6 6 4 5 8 9 12 14 14 16 15
1 1 1 1 1 1 1 2 3 10 9 10 8 8 8 7 7 7 7 8 10 12 13 14 16 16 16 15
1 1 4 5 8 8 8 11 9 11 9 8 7 9 7 7 7 9 12 10 13 14 13 12 13 14 15 15
1 2 5 6 8 8 10 7 8 7 6 8 11 10 7 10 10 12 11 13 15 12 11 11 12 13 14 15
2 6 8 7 5 6 12 10 8 8 8 7 10 11 8 10 11 12 12 14 12 9 11 12 13 13 14 14
6 8 7 5 5 7 14 12 10 9 9 9 11 8 9 10 12 13 13 13 10 11 12 12 11 14 11 11
11 8 6 5 7 9 19 11 11 8 9 10 11 9 8 9 12 12 12 13 12 12 12 12 11 13 10 11
8 7 5 7 8 15 19 13 11 12 12 11 11 9 10 9 10 12 12 12 10 11 11 10 10 10 12 13
8 7 6 10 15 18 12 13 12 11 13 13 12 11 12 13 14 16 17 14 13 11 10 12 11 12 14 18
6 7 9 13 19 14 13 10 10 11 14 13 13 12 13 14 12 14 16 17 17 13 11 12 13 13 13 16
6 8 12 17 17 13 11 12 11 14 14 12 12 12 14 14 13 13 16 16 17 12 11 10 11 14 15 12
8 9 14 15 14 11 10 11 14 13 15 13 13 13 13 12 10 9 9 13 16 12 11 11 11 12 11 15
8 11 15 15 12 9 11 12 13 13 13 14 13 13 13 10 9 9 8 10 13 13 12 13 12 12 13 14
12 14 14 13 10 12 12 13 12 11 13 14 14 13 13 11 10 9 11 9 12 16 14 9 8 9 11 12
16 16 15 15 13 14 14 14 14 13 14 14 17 13 15 10 11 12 12 10 13 17 15 12 12 13 12 12

GFSFLT2_con_lsi_015.txt.gz
Lid_Strength_Index
-0 1 0 -0 0 0 -0 -0 -1 2 7 9 5 5 5 6 5 4 5 4 4 5 6 8 7 8 9 8
0 1 0 0 0 0 -0 -0 -1 5 9 6 5 5 5 6 5 4 3 3 3 5 6 6 8 10 10 11
1 1 1 1 0 0 -0 -1 4 6 10 3 8 7 5 7 6 5 4 4 4 7 7 9 11 11 13 13
1 1 1 1 1 1 1 2 5 10 8 9 8 7 6 6 6 6 6 7 8 10 10 10 15 14 14 13
1 1 4 6 8 9 7 10 10 11 9 8 7 8 7 7 6 8 11 9 11 13 12 11 12 13 14 14
2 2 5 7 7 7 10 7 8 8 7 7 9 9 7 9 9 11 10 11 13 11 11 11 11 12 13 13
2 6 6 6 5 6 11 10 8 8 8 7 9 9 8 9 10 12 12 14 12 11 11 12 13 13 14 13
7 8 6 4 5 7 14 12 10 9 9 8 10 8 8 9 10 12 13 12 11 11 12 13 12 15 12 12
9 7 6 5 6 9 18 11 11 7 9 10 10 9 8 8 12 12 11 12 12 11 12 11 11 12 11 12
8 7 7 7 9 15 18 12 10 10 11 11 11 9 9 8 9 11 11 11 10 10 11 10 10 9 11 12
8 6 8 10 15 18 12 13 12 11 12 12 12 11 11 12 14 15 15 14 13 11 10 11 11 11 13 16
7 7 10 13 18 14 14 11 11 12 13 12 12 12 12 14 11 13 15 16 16 12 10 11 12 12 12 15
7 9 12 17 16 14 12 12 12 14 14 12 12 13 13 13 11 11 14 15 15 10 9 9 10 12 13 11
8 10 13 15 14 12 13 12 15 13 15 14 14 15 15 11 11 11 9 12 16 11 10 9 10 10 10 14
9 11 16 15 12 12 14 14 13 14 14 16 15 16 15 14 13 14 11 12 13 14 13 14 14 14 15 14
13 15 16 14 12 14 14 14 13 15 15 16 17 15 15 15 13 13 15 13 14 18 17 13 12 13 13 14
19 20 18 16 14 16 15 15 15 14 15 16 19 16 16 13 13 14 15 14 17 21 20 17 15 16 15 14

GFSFLT2_con_lsi_018.txt.gz
Lid_Strength_Index
1 0 -0 0 0 -0 -0 -0 -1 2 6 7 3 3 3 4 3 3 4 3 3 4 5 7 5 6 8 6
1 0 0 1 1 0 -0 -0 -1 3 7 4 3 4 3 4 3 3 3 2 2 4 5 5 6 8 8 9
1 0 0 1 1 1 0 -0 3 5 7 2 6 5 4 6 5 3 3 3 3 5 5 8 9 8 11 10
1 1 1 1 0 0 1 1 3 7 6 7 6 6 5 5 5 5 5 5 6 7 7 9 12 11 11 10
1 1 2 2 4 5 5 8 8 8 7 5 5 6 5 5 5 6 9 7 9 10 9 9 9 10 11 11
1 2 2 4 5 4 7 6 6 6 5 5 7 7 5 8 8 10 8 9 10 9 10 10 10 10 11 11
2 3 3 4 3 4 7 8 7 7 6 6 8 8 7 8 9 10 10 11 10 9 10 10 11 10 11 11
4 4 4 3 2 4 9 9 9 8 7 7 9 7 7 8 9 10 10 10 9 10 10 10 10 11 9 10
5 4 5 3 3 5 13 10 9 6 7 8 8 8 7 8 10 10 10 10 10 10 10 10 9 10 9 9
4 4 3 4 5 10 14 10 8 9 9 9 9 7 8 7 8 10 9 9 8 9 9 9 9 9 9 9
5 3 3 5 10 13 10 11 11 9 10 10 9 8 9 9 10 12 12 10 10 9 8 10 8 8 10 13
5 4 5 8 13 12 11 9 10 10 11 10 10 10 10 11 9 9 11 12 13 11 8 10 11 10 11 13
5 5 7 11 12 11 11 11 11 12 11 10 11 12 11 11 11 11 12 13 13 9 10 9 9 11 12 10
5 5 8 12 11 12 13 11 13 12 14 13 13 13 14 11 12 12 11 12 16 12 10 10 9 12 11 16
5 7 11 11 11 12 12 12 13 14 13 14 14 15 14 13 12 13 12 13 14 14 13 14 15 15 15 14
9 10 11 12 11 13 12 12 12 13 14 15 16 16 15 13 13 13 15 14 15 18 16 13 13 13 14 15
14 15 14 13 13 13 13 13 14 13 13 15 17 16 14 12 12 13 15 14 16 19 17 14 13 15 14 14